Location: Votelez
(50.0000°N, 15.0000°E)
Time: 10:32:45
(UTC+01:00)

ISS - Pass Details

Date: 14 February 2026
Orbit: 416 x 426 km, 51.6° (Epoch: 9 March)

Event Time Altitude Azimuth Distance (km) Brightness Sun altitude
Exits shadow 06:19:40 - 226° (SW) 2,234 -0.4 -9.1°
Reaches altitude 10° 06:21:32 10° 219° (SW) 1,489 -1.3 -8.8°
Maximum altitude 06:24:40 38° 150° (SSE) 652 -2.4 -8.3°
Drops below altitude 10° 06:27:48 10° 80° (E) 1,493 0.4 -7.8°
Sets 06:29:58 0° 73° (ENE) 2,358 1.3 -7.4°
